User: anonymous   Login
Location: Bacharowice
(49.9333°N, 19.5833°E)
Time: 15:12:48
(UTC+00:00)
Language:

SOZ - Orbit

View from above orbital plane
View from above orbital plane
View from above satellite
View from above satellite

Ground track
Ground track

The orbit data is extracted from the following two-line orbital elements,

1 15266U 84095H   21208.15860710  .00002935  00000-0  64476-3 0  9996
2 15266  51.9923  63.9414 5513386 115.9744 309.9230  4.77995576608043
Epoch (UTC): 27 July 2021 03:48:23
Eccentricity: 0.5513386
inclination: 51.9923°
perigee height: 301 km
apogee height: 16715 km
right ascension of ascending node: 63.9414°
argument of perigee: 115.9744°
revolutions per day: 4.77995576
mean anomaly at epoch: 309.9230°
orbit number at epoch: 60804

The dashed part of the orbit path shows where the satellite is in the earth's shadow,  

DLR